Location: Wingville
(42.9917°N, 90.4915°W)
Time: 06:47:58
(UTC+00:00)

N. Korean satellite - Visible Passes

Search period start: 27 January 2022 00:00
Search period end: 06 February 2022 00:00
Orbit: 447 x 490 km, 97.3° (Epoch: 26 January)

Date Brightness Start Highest point End Pass type
(mag) Time Alt. Az. Time Alt. Az. Time Alt. Az.
27 Jan 6.5 11:34:52 10° N 11:38:27 57° WNW 11:39:01 50° WSW visible
28 Jan 7.1 11:05:39 10° NNE 11:09:14 57° E 11:09:56 47° SE visible
28 Jan 8.6 12:41:06 10° NW 12:41:52 11° WNW 12:42:37 10° WNW visible
29 Jan 8.8 10:36:52 10° NE 10:39:54 24° E 10:40:54 21° ESE visible
29 Jan 7.8 12:10:04 10° NNW 12:12:55 22° WNW 12:14:58 14° WSW visible
30 Jan 10.0 10:09:20 10° ENE 10:10:24 11° E 10:11:28 10° ESE visible
30 Jan 6.7 11:40:18 10° N 11:43:49 48° WNW 11:45:59 21° SW visible
31 Jan 6.8 11:10:57 10° NNE 11:14:35 68° E 11:17:06 19° S visible
01 Feb 8.6 10:42:02 10° NE 10:45:13 28° E 10:48:21 10° SSE visible
01 Feb 8.0 12:15:32 10° NNW 12:18:09 19° WNW 12:20:45 10° WSW visible
02 Feb 9.8 10:14:01 10° ENE 10:15:42 13° E 10:17:22 10° ESE visible
02 Feb 6.9 11:45:36 10° N 11:49:02 41° WNW 11:52:25 10° SW visible
03 Feb 6.6 11:16:08 10° NNE 11:19:47 81° ESE 11:23:21 10° S visible
04 Feb 8.3 10:47:04 10° NNE 10:50:22 32° E 10:53:37 10° SSE visible
04 Feb 8.1 12:20:53 10° NNW 12:23:14 17° WNW 12:25:35 10° WSW visible
05 Feb 9.6 10:18:45 10° ENE 10:20:50 15° E 10:22:53 10° SE visible
05 Feb 7.1 11:50:46 10° N 11:54:06 35° WNW 11:57:23 10° SW visible
